User: anonymous   Login
Location: Waldport
(44.4270°N, 124.0680°W)
Time: 00:24:06
(UTC-07:00)
Language:

Cosmos 1570 Rocket - Orbit

View from above orbital plane
View from above orbital plane
View from above satellite
View from above satellite

Ground track
Ground track

The orbit data is extracted from the following two-line orbital elements,

1 15032U 84056B   16182.85443644 -.00000019  00000-0  25848-5 0  9993
2 15032  74.0711 358.4370 0018204 250.4168 109.5019 14.34663836676530
Epoch (UTC): 30 June 2016 20:30:23
Eccentricity: 0.0018204
inclination: 74.0711°
perigee height: 763 km
apogee height: 789 km
right ascension of ascending node: 358.4370°
argument of perigee: 250.4168°
revolutions per day: 14.34663836
mean anomaly at epoch: 109.5019°
orbit number at epoch: 67653

The dashed part of the orbit path shows where the satellite is in the earth's shadow,  

DLR